Year,Month,Day,Hour,Minute,Value (Times are PST for temperature in C)
2018,07,16,00,00,21.00
2018,07,16,00,01,20.90
2018,07,16,00,02,20.90
2018,07,16,00,03,20.90
2018,07,16,00,04,20.80
2018,07,16,00,05,20.80
2018,07,16,00,06,20.80
2018,07,16,00,07,20.70
2018,07,16,00,08,20.70
2018,07,16,00,09,20.70
2018,07,16,00,10,20.60
2018,07,16,00,11,20.60
2018,07,16,00,12,20.60
2018,07,16,00,13,20.50
2018,07,16,00,14,20.40
2018,07,16,00,15,20.40
2018,07,16,00,16,20.40
2018,07,16,00,17,20.30
2018,07,16,00,18,20.30
2018,07,16,00,19,20.20
2018,07,16,00,20,20.20
2018,07,16,00,21,20.20
2018,07,16,00,22,20.10
2018,07,16,00,23,20.10
2018,07,16,00,24,20.10
2018,07,16,00,25,20.00
2018,07,16,00,26,20.00
2018,07,16,00,27,19.90
2018,07,16,00,28,19.90
2018,07,16,00,29,19.90
2018,07,16,00,30,19.90
2018,07,16,00,31,19.90
2018,07,16,00,32,19.80
2018,07,16,00,33,19.80
2018,07,16,00,34,19.80
2018,07,16,00,35,19.70
2018,07,16,00,36,19.70
2018,07,16,00,37,19.70
2018,07,16,00,38,19.70
2018,07,16,00,39,19.60
2018,07,16,00,40,19.60
2018,07,16,00,41,19.60
2018,07,16,00,42,19.60
2018,07,16,00,43,19.60
2018,07,16,00,44,19.50
2018,07,16,00,45,19.50
2018,07,16,00,46,19.40
2018,07,16,00,47,19.40
2018,07,16,00,48,19.40
2018,07,16,00,49,19.40
2018,07,16,00,50,19.30
2018,07,16,00,51,19.30
2018,07,16,00,52,19.30
2018,07,16,00,53,19.30
2018,07,16,00,54,19.30
2018,07,16,00,55,19.20
2018,07,16,00,56,19.20
2018,07,16,00,57,19.20
2018,07,16,00,58,19.20
2018,07,16,00,59,19.20
2018,07,16,01,00,19.10
2018,07,16,01,01,19.10
2018,07,16,01,02,19.10
2018,07,16,01,03,19.00
2018,07,16,01,04,19.00
2018,07,16,01,05,18.90
2018,07,16,01,06,18.90
2018,07,16,01,07,18.90
2018,07,16,01,08,18.80
2018,07,16,01,09,18.80
2018,07,16,01,10,18.70
2018,07,16,01,11,18.70
2018,07,16,01,12,18.70
2018,07,16,01,13,18.60
2018,07,16,01,14,18.60
2018,07,16,01,15,18.50
2018,07,16,01,16,18.50
2018,07,16,01,17,18.40
2018,07,16,01,18,18.40
2018,07,16,01,19,18.30
2018,07,16,01,20,18.30
2018,07,16,01,21,18.30
2018,07,16,01,22,18.20
2018,07,16,01,23,18.20
2018,07,16,01,24,18.20
2018,07,16,01,25,18.10
2018,07,16,01,26,18.10
2018,07,16,01,27,18.10
2018,07,16,01,28,18.10
2018,07,16,01,29,18.00
2018,07,16,01,30,18.00
2018,07,16,01,31,18.00
2018,07,16,01,32,17.90
2018,07,16,01,33,17.90
2018,07,16,01,34,17.90
2018,07,16,01,35,17.90
2018,07,16,01,36,17.90
2018,07,16,01,37,17.80
2018,07,16,01,38,17.90
2018,07,16,01,39,17.80
2018,07,16,01,40,17.80
2018,07,16,01,41,17.80
2018,07,16,01,42,17.80
2018,07,16,01,43,17.80
2018,07,16,01,44,17.80
2018,07,16,01,45,17.80
2018,07,16,01,46,17.80
2018,07,16,01,47,17.80
2018,07,16,01,48,17.80
2018,07,16,01,49,17.80
2018,07,16,01,50,17.80
2018,07,16,01,51,17.80
2018,07,16,01,52,17.80
2018,07,16,01,53,17.80
2018,07,16,01,54,17.80
2018,07,16,01,55,17.80
2018,07,16,01,56,17.80
2018,07,16,01,57,17.80
2018,07,16,01,58,17.80
2018,07,16,01,59,17.80
2018,07,16,02,00,17.80
2018,07,16,02,01,17.80
2018,07,16,02,02,17.80
2018,07,16,02,03,17.80
2018,07,16,02,04,17.80
2018,07,16,02,05,17.80
2018,07,16,02,06,17.80
2018,07,16,02,07,17.80
2018,07,16,02,08,17.80
2018,07,16,02,09,17.80
2018,07,16,02,10,17.80
2018,07,16,02,11,17.80
2018,07,16,02,12,17.90
2018,07,16,02,13,17.90
2018,07,16,02,14,17.90
2018,07,16,02,15,17.90
2018,07,16,02,16,17.90
2018,07,16,02,17,17.90
2018,07,16,02,18,18.00
2018,07,16,02,19,18.00
2018,07,16,02,20,18.00
2018,07,16,02,21,17.90
2018,07,16,02,22,17.90
2018,07,16,02,23,17.90
2018,07,16,02,24,17.90
2018,07,16,02,25,17.90
2018,07,16,02,26,17.90
2018,07,16,02,27,17.90
2018,07,16,02,28,17.90
2018,07,16,02,29,17.90
2018,07,16,02,30,17.90
2018,07,16,02,31,17.90
2018,07,16,02,32,17.90
2018,07,16,02,33,17.90
2018,07,16,02,34,17.90
2018,07,16,02,35,17.90
2018,07,16,02,36,17.80
2018,07,16,02,37,17.80
2018,07,16,02,38,17.80
2018,07,16,02,39,17.80
2018,07,16,02,40,17.80
2018,07,16,02,41,17.80
2018,07,16,02,42,17.80
2018,07,16,02,43,17.80
2018,07,16,02,44,17.80
2018,07,16,02,45,17.80
2018,07,16,02,46,17.80
2018,07,16,02,47,17.80
2018,07,16,02,48,17.70
2018,07,16,02,49,17.70
2018,07,16,02,50,17.70
2018,07,16,02,51,17.70
2018,07,16,02,52,17.70
2018,07,16,02,53,17.70
2018,07,16,02,54,17.60
2018,07,16,02,55,17.60
2018,07,16,02,56,17.60
2018,07,16,02,57,17.60
2018,07,16,02,58,17.60
2018,07,16,02,59,17.50
2018,07,16,03,00,17.50
2018,07,16,03,01,17.50
2018,07,16,03,02,17.50
2018,07,16,03,03,17.40
2018,07,16,03,04,17.40
2018,07,16,03,05,17.40
2018,07,16,03,06,17.40
2018,07,16,03,07,17.40
2018,07,16,03,08,17.40
2018,07,16,03,09,17.40
2018,07,16,03,10,17.40
2018,07,16,03,11,17.40
2018,07,16,03,12,17.40
2018,07,16,03,13,17.40
2018,07,16,03,14,17.30
2018,07,16,03,15,17.30
2018,07,16,03,16,17.30
2018,07,16,03,17,17.30
2018,07,16,03,18,17.30
2018,07,16,03,19,17.30
2018,07,16,03,20,17.40
2018,07,16,03,21,17.40
2018,07,16,03,22,17.40
2018,07,16,03,23,17.40
2018,07,16,03,24,17.40
2018,07,16,03,25,17.40
2018,07,16,03,26,17.40
2018,07,16,03,27,17.40
2018,07,16,03,28,17.40
2018,07,16,03,29,17.40
2018,07,16,03,30,17.40
2018,07,16,03,31,17.40
2018,07,16,03,32,17.40
2018,07,16,03,33,17.40
2018,07,16,03,34,17.40
2018,07,16,03,35,17.40
2018,07,16,03,36,17.40
2018,07,16,03,37,17.40
2018,07,16,03,38,17.30
2018,07,16,03,39,17.30
2018,07,16,03,40,17.30
2018,07,16,03,41,17.30
2018,07,16,03,42,17.30
2018,07,16,03,43,17.30
2018,07,16,03,44,17.20
2018,07,16,03,45,17.20
2018,07,16,03,46,17.20
2018,07,16,03,47,17.20
2018,07,16,03,48,17.20
2018,07,16,03,49,17.10
2018,07,16,03,50,17.10
2018,07,16,03,51,17.10
2018,07,16,03,52,17.10
2018,07,16,03,53,17.10
2018,07,16,03,54,17.00
2018,07,16,03,55,17.00
2018,07,16,03,56,16.90
2018,07,16,03,57,16.90
2018,07,16,03,58,16.90
2018,07,16,03,59,16.80
2018,07,16,04,00,16.80
2018,07,16,04,01,16.80
2018,07,16,04,02,16.70
2018,07,16,04,03,16.70
2018,07,16,04,04,16.70
2018,07,16,04,05,16.60
2018,07,16,04,06,16.60
2018,07,16,04,07,16.60
2018,07,16,04,08,16.50
2018,07,16,04,09,16.50
2018,07,16,04,10,16.40
2018,07,16,04,11,16.40
2018,07,16,04,12,16.30
2018,07,16,04,13,16.30
2018,07,16,04,14,16.30
2018,07,16,04,15,16.20
2018,07,16,04,16,16.20
2018,07,16,04,17,16.20
2018,07,16,04,18,16.10
2018,07,16,04,19,16.10
2018,07,16,04,20,16.10
2018,07,16,04,21,16.10
2018,07,16,04,22,16.00
2018,07,16,04,23,16.00
2018,07,16,04,24,16.00
2018,07,16,04,25,15.90
2018,07,16,04,26,15.90
2018,07,16,04,27,15.90
2018,07,16,04,28,15.90
2018,07,16,04,29,15.90
2018,07,16,04,30,15.80
2018,07,16,04,31,15.80
2018,07,16,04,32,15.80
2018,07,16,04,33,15.70
2018,07,16,04,34,15.70
2018,07,16,04,35,15.70
2018,07,16,04,36,15.70
2018,07,16,04,37,15.60
2018,07,16,04,38,15.60
2018,07,16,04,39,15.60
2018,07,16,04,40,15.60
2018,07,16,04,41,15.50
2018,07,16,04,42,15.50
2018,07,16,04,43,15.50
2018,07,16,04,44,15.40
2018,07,16,04,45,15.40
2018,07,16,04,46,15.40
2018,07,16,04,47,15.40
2018,07,16,04,48,15.40
2018,07,16,04,49,15.40
2018,07,16,04,50,15.30
2018,07,16,04,51,15.30
2018,07,16,04,52,15.30
2018,07,16,04,53,15.30
2018,07,16,04,54,15.30
2018,07,16,04,55,15.20
2018,07,16,04,56,15.20
2018,07,16,04,57,15.20
2018,07,16,04,58,15.20
2018,07,16,04,59,15.20
2018,07,16,05,00,15.20
2018,07,16,05,01,15.20
2018,07,16,05,02,15.20
2018,07,16,05,03,15.20
2018,07,16,05,04,15.20
2018,07,16,05,05,15.20
2018,07,16,05,06,15.20
2018,07,16,05,07,15.20
2018,07,16,05,08,15.20
2018,07,16,05,09,15.20
2018,07,16,05,10,15.20
2018,07,16,05,11,15.20
2018,07,16,05,12,15.20
2018,07,16,05,13,15.30
2018,07,16,05,14,15.30
2018,07,16,05,15,15.30
2018,07,16,05,16,15.30
2018,07,16,05,17,15.30
2018,07,16,05,18,15.30
2018,07,16,05,19,15.30
2018,07,16,05,20,15.40
2018,07,16,05,21,15.40
2018,07,16,05,22,15.40
2018,07,16,05,23,15.40
2018,07,16,05,24,15.40
2018,07,16,05,25,15.40
2018,07,16,05,26,15.40
2018,07,16,05,27,15.40
2018,07,16,05,28,15.40
2018,07,16,05,29,15.40
2018,07,16,05,30,15.40
2018,07,16,05,31,15.40
2018,07,16,05,32,15.40
2018,07,16,05,33,15.40
2018,07,16,05,34,15.40
2018,07,16,05,35,15.40
2018,07,16,05,36,15.40
2018,07,16,05,37,15.40
2018,07,16,05,38,15.40
2018,07,16,05,39,15.50
2018,07,16,05,40,15.50
2018,07,16,05,41,15.50
2018,07,16,05,42,15.50
2018,07,16,05,43,15.50
2018,07,16,05,44,15.50
2018,07,16,05,45,15.50
2018,07,16,05,46,15.50
2018,07,16,05,47,15.50
2018,07,16,05,48,15.50
2018,07,16,05,49,15.50
2018,07,16,05,50,15.60
2018,07,16,05,51,15.60
2018,07,16,05,52,15.60
2018,07,16,05,53,15.60
2018,07,16,05,54,15.60
2018,07,16,05,55,15.60
2018,07,16,05,56,15.60
2018,07,16,05,57,15.70
2018,07,16,05,58,15.70
2018,07,16,05,59,15.70
2018,07,16,06,00,15.80
2018,07,16,06,01,15.90
2018,07,16,06,02,15.90
2018,07,16,06,03,16.00
2018,07,16,06,04,16.10
2018,07,16,06,05,16.10
2018,07,16,06,06,16.20
2018,07,16,06,07,16.20
2018,07,16,06,08,16.30
2018,07,16,06,09,16.30
2018,07,16,06,10,16.40
2018,07,16,06,11,16.50
2018,07,16,06,12,16.50
2018,07,16,06,13,16.60
2018,07,16,06,14,16.70
2018,07,16,06,15,16.70
2018,07,16,06,16,16.80
2018,07,16,06,17,16.90
2018,07,16,06,18,16.90
2018,07,16,06,19,17.00
2018,07,16,06,20,17.10
2018,07,16,06,21,17.20
2018,07,16,06,22,17.20
2018,07,16,06,23,17.30
2018,07,16,06,24,17.30
2018,07,16,06,25,17.30
2018,07,16,06,26,17.40
2018,07,16,06,27,17.40
2018,07,16,06,28,17.40
2018,07,16,06,29,17.50
2018,07,16,06,30,17.50
2018,07,16,06,31,17.50
2018,07,16,06,32,17.60
2018,07,16,06,33,17.60
2018,07,16,06,34,17.60
2018,07,16,06,35,17.70
2018,07,16,06,36,17.70
2018,07,16,06,37,17.80
2018,07,16,06,38,17.80
2018,07,16,06,39,17.90
2018,07,16,06,40,18.00
2018,07,16,06,41,18.00
2018,07,16,06,42,18.10
2018,07,16,06,43,18.20
2018,07,16,06,44,18.30
2018,07,16,06,45,18.30
2018,07,16,06,46,18.40
2018,07,16,06,47,18.50
2018,07,16,06,48,18.60
2018,07,16,06,49,18.70
2018,07,16,06,50,18.80
2018,07,16,06,51,18.80
2018,07,16,06,52,18.90
2018,07,16,06,53,18.90
2018,07,16,06,54,19.00
2018,07,16,06,55,19.10
2018,07,16,06,56,19.10
2018,07,16,06,57,19.20
2018,07,16,06,58,19.20
2018,07,16,06,59,19.20
2018,07,16,07,00,19.30
2018,07,16,07,01,19.30
2018,07,16,07,02,19.30
2018,07,16,07,03,19.30
2018,07,16,07,04,19.30
2018,07,16,07,05,19.40
2018,07,16,07,06,19.40
2018,07,16,07,07,19.40
2018,07,16,07,08,19.40
2018,07,16,07,09,19.40
2018,07,16,07,10,19.40
2018,07,16,07,11,19.40
2018,07,16,07,12,19.40
2018,07,16,07,13,19.40
2018,07,16,07,14,19.40
2018,07,16,07,15,19.40
2018,07,16,07,16,19.40
2018,07,16,07,17,19.40
2018,07,16,07,18,19.40
2018,07,16,07,19,19.40
2018,07,16,07,20,19.40
2018,07,16,07,21,19.40
2018,07,16,07,22,19.40
2018,07,16,07,23,19.50
2018,07,16,07,24,19.50
2018,07,16,07,25,19.60
2018,07,16,07,26,19.60
2018,07,16,07,27,19.60
2018,07,16,07,28,19.60
2018,07,16,07,29,19.70
2018,07,16,07,30,19.70
2018,07,16,07,31,19.70
2018,07,16,07,32,19.80
2018,07,16,07,33,19.80
2018,07,16,07,34,19.90
2018,07,16,07,35,19.90
2018,07,16,07,36,20.00
2018,07,16,07,37,20.10
2018,07,16,07,38,20.10
2018,07,16,07,39,20.20
2018,07,16,07,40,20.20
2018,07,16,07,41,20.20
2018,07,16,07,42,20.30
2018,07,16,07,43,20.30
2018,07,16,07,44,20.30
2018,07,16,07,45,20.40
2018,07,16,07,46,20.40
2018,07,16,07,47,20.40
2018,07,16,07,48,20.40
2018,07,16,07,49,20.50
2018,07,16,07,50,20.50
2018,07,16,07,51,20.50
2018,07,16,07,52,20.60
2018,07,16,07,53,20.60
2018,07,16,07,54,20.60
2018,07,16,07,55,20.50
2018,07,16,07,56,20.50
2018,07,16,07,57,20.50
2018,07,16,07,58,20.50
2018,07,16,07,59,20.50
2018,07,16,08,00,20.50
2018,07,16,08,01,20.40
2018,07,16,08,02,20.40
2018,07,16,08,03,20.40
2018,07,16,08,04,20.40
2018,07,16,08,05,20.30
2018,07,16,08,06,20.30
2018,07,16,08,07,20.30
2018,07,16,08,08,20.30
2018,07,16,08,09,20.30
2018,07,16,08,10,20.30
2018,07,16,08,11,20.30
2018,07,16,08,12,20.30
2018,07,16,08,13,20.30
2018,07,16,08,14,20.40
2018,07,16,08,15,20.40
2018,07,16,08,16,20.30
2018,07,16,08,17,20.30
2018,07,16,08,18,20.30
2018,07,16,08,19,20.30
2018,07,16,08,20,20.30
2018,07,16,08,21,20.40
2018,07,16,08,22,20.40
2018,07,16,08,23,20.40
2018,07,16,08,24,20.30
2018,07,16,08,25,20.30
2018,07,16,08,26,20.40
2018,07,16,08,27,20.40
2018,07,16,08,28,20.40
2018,07,16,08,29,20.40
2018,07,16,08,30,20.40
2018,07,16,08,31,20.50
2018,07,16,08,32,20.50
2018,07,16,08,33,20.60
2018,07,16,08,34,20.60
2018,07,16,08,35,20.60
2018,07,16,08,36,20.70
2018,07,16,08,37,20.70
2018,07,16,08,38,20.70
2018,07,16,08,39,20.70
2018,07,16,08,40,20.70
2018,07,16,08,41,20.70
2018,07,16,08,42,20.70
2018,07,16,08,43,20.70
2018,07,16,08,44,20.70
2018,07,16,08,45,20.70
2018,07,16,08,46,20.80
2018,07,16,08,47,20.80
2018,07,16,08,48,20.80
2018,07,16,08,49,20.80
2018,07,16,08,50,20.90
2018,07,16,08,51,20.90
2018,07,16,08,52,20.90
2018,07,16,08,53,21.00
2018,07,16,08,54,21.00
2018,07,16,08,55,21.10
2018,07,16,08,56,21.10
2018,07,16,08,57,21.20
2018,07,16,08,58,21.20
2018,07,16,08,59,21.30
2018,07,16,09,00,21.30
2018,07,16,09,01,21.30
2018,07,16,09,02,21.30
2018,07,16,09,03,21.30
2018,07,16,09,04,21.20
2018,07,16,09,05,21.20
2018,07,16,09,06,21.20
2018,07,16,09,07,21.20
2018,07,16,09,08,21.20
2018,07,16,09,09,21.20
2018,07,16,09,10,21.20
2018,07,16,09,11,21.20
2018,07,16,09,12,21.20
2018,07,16,09,13,21.10
2018,07,16,09,14,21.10
2018,07,16,09,15,21.10
2018,07,16,09,16,21.10
2018,07,16,09,17,21.10
2018,07,16,09,18,21.10
2018,07,16,09,19,21.10
2018,07,16,09,20,21.10
2018,07,16,09,21,21.10
2018,07,16,09,22,21.10
2018,07,16,09,23,21.20
2018,07,16,09,24,21.20
2018,07,16,09,25,21.20
2018,07,16,09,26,21.30
2018,07,16,09,27,21.30
2018,07,16,09,28,21.40
2018,07,16,09,29,21.40
2018,07,16,09,30,21.50
2018,07,16,09,31,21.50
2018,07,16,09,32,21.50
2018,07,16,09,33,21.60
2018,07,16,09,34,21.60
2018,07,16,09,35,21.60
2018,07,16,09,36,21.60
2018,07,16,09,37,21.60
2018,07,16,09,38,21.60
2018,07,16,09,39,21.60
2018,07,16,09,40,21.60
2018,07,16,09,41,21.60
2018,07,16,09,42,21.60
2018,07,16,09,43,21.60
2018,07,16,09,44,21.60
2018,07,16,09,45,21.60
2018,07,16,09,46,21.70
2018,07,16,09,47,21.70
2018,07,16,09,48,21.70
2018,07,16,09,49,21.80
2018,07,16,09,50,21.80
2018,07,16,09,51,21.80
2018,07,16,09,52,21.90
2018,07,16,09,53,21.90
2018,07,16,09,54,21.90
2018,07,16,09,55,21.90
2018,07,16,09,56,21.90
2018,07,16,09,57,21.90
2018,07,16,09,58,21.90
2018,07,16,09,59,22.00
2018,07,16,10,00,22.00
2018,07,16,10,01,22.00
2018,07,16,10,02,22.00
2018,07,16,10,03,22.00
2018,07,16,10,04,21.90
2018,07,16,10,05,21.90
2018,07,16,10,06,21.80
2018,07,16,10,07,21.80
2018,07,16,10,08,21.80
2018,07,16,10,09,21.80
2018,07,16,10,10,21.90
2018,07,16,10,11,21.90
2018,07,16,10,12,22.00
2018,07,16,10,13,22.00
2018,07,16,10,14,22.10
2018,07,16,10,15,22.10
2018,07,16,10,16,22.20
2018,07,16,10,17,22.20
2018,07,16,10,18,22.20
2018,07,16,10,19,22.10
2018,07,16,10,20,22.10
2018,07,16,10,21,22.10
2018,07,16,10,22,22.10
2018,07,16,10,23,22.10
2018,07,16,10,24,22.10
2018,07,16,10,25,22.10
2018,07,16,10,26,22.10
2018,07,16,10,27,22.10
2018,07,16,10,28,22.10
2018,07,16,10,29,22.10
2018,07,16,10,30,22.10
2018,07,16,10,31,22.10
2018,07,16,10,32,22.10
2018,07,16,10,33,22.20
2018,07,16,10,34,22.20
2018,07,16,10,35,22.20
2018,07,16,10,36,22.20
2018,07,16,10,37,22.20
2018,07,16,10,38,22.30
2018,07,16,10,39,22.30
2018,07,16,10,40,22.30
2018,07,16,10,41,22.40
2018,07,16,10,42,22.40
2018,07,16,10,43,22.40
2018,07,16,10,44,22.50
2018,07,16,10,45,22.50
2018,07,16,10,46,22.60
2018,07,16,10,47,22.60
2018,07,16,10,48,22.60
2018,07,16,10,49,22.60
2018,07,16,10,50,22.60
2018,07,16,10,51,22.60
2018,07,16,10,52,22.60
2018,07,16,10,53,22.60
2018,07,16,10,54,22.60
2018,07,16,10,55,22.60
2018,07,16,10,56,22.70
2018,07,16,10,57,22.70
2018,07,16,10,58,22.70
2018,07,16,10,59,22.70
2018,07,16,11,00,22.70
2018,07,16,11,01,22.80
2018,07,16,11,02,22.80
2018,07,16,11,03,22.90
2018,07,16,11,04,22.90
2018,07,16,11,05,23.00
2018,07,16,11,06,23.00
2018,07,16,11,07,23.10
2018,07,16,11,08,23.10
2018,07,16,11,09,23.10
2018,07,16,11,10,23.10
2018,07,16,11,11,23.10
2018,07,16,11,12,23.10
2018,07,16,11,13,23.10
2018,07,16,11,14,23.10
2018,07,16,11,15,23.10
2018,07,16,11,16,23.10
2018,07,16,11,17,23.10
2018,07,16,11,18,23.10
2018,07,16,11,19,23.10
2018,07,16,11,20,23.20
2018,07,16,11,21,23.20
2018,07,16,11,22,23.20
2018,07,16,11,23,23.20
2018,07,16,11,24,23.20
2018,07,16,11,25,23.30
2018,07,16,11,26,23.30
2018,07,16,11,27,23.30
2018,07,16,11,28,23.40
2018,07,16,11,29,23.40
2018,07,16,11,30,23.40
2018,07,16,11,31,23.50
2018,07,16,11,32,23.50
2018,07,16,11,33,23.60
2018,07,16,11,34,23.60
2018,07,16,11,35,23.60
2018,07,16,11,36,23.60
2018,07,16,11,37,23.60
2018,07,16,11,38,23.60
2018,07,16,11,39,23.60
2018,07,16,11,40,23.60
2018,07,16,11,41,23.60
2018,07,16,11,42,23.60
2018,07,16,11,43,23.60
2018,07,16,11,44,23.60
2018,07,16,11,45,23.70
2018,07,16,11,46,23.70
2018,07,16,11,47,23.70
2018,07,16,11,48,23.70
2018,07,16,11,49,23.80
2018,07,16,11,50,23.80
2018,07,16,11,51,23.90
2018,07,16,11,52,23.90
2018,07,16,11,53,23.90
2018,07,16,11,54,24.00
2018,07,16,11,55,23.90
2018,07,16,11,56,23.90
2018,07,16,11,57,23.90
2018,07,16,11,58,24.00
2018,07,16,11,59,24.00
2018,07,16,12,00,24.00
2018,07,16,12,01,24.00
2018,07,16,12,02,24.00
2018,07,16,12,03,24.00
2018,07,16,12,04,24.00
2018,07,16,12,05,24.00
2018,07,16,12,06,23.90
2018,07,16,12,07,23.90
2018,07,16,12,08,23.80
2018,07,16,12,09,23.80
2018,07,16,12,10,23.80
2018,07,16,12,11,23.90
2018,07,16,12,12,23.90
2018,07,16,12,13,23.90
2018,07,16,12,14,23.90
2018,07,16,12,15,23.90
2018,07,16,12,16,23.90
2018,07,16,12,17,23.90
2018,07,16,12,18,24.00
2018,07,16,12,19,24.10
2018,07,16,12,20,24.10
2018,07,16,12,21,24.20
2018,07,16,12,22,24.30
2018,07,16,12,23,24.30
2018,07,16,12,24,24.40
2018,07,16,12,25,24.50
2018,07,16,12,26,24.70
2018,07,16,12,27,24.80
2018,07,16,12,28,25.00
2018,07,16,12,29,25.20
2018,07,16,12,30,25.40
2018,07,16,12,31,25.50
2018,07,16,12,32,25.60
2018,07,16,12,33,25.60
2018,07,16,12,34,25.70
2018,07,16,12,35,25.70
2018,07,16,12,36,25.70
2018,07,16,12,37,25.80
2018,07,16,12,38,25.80
2018,07,16,12,39,25.90
2018,07,16,12,40,26.00
2018,07,16,12,41,26.10
2018,07,16,12,42,26.00
2018,07,16,12,43,26.00
2018,07,16,12,44,26.00
2018,07,16,12,45,26.00
2018,07,16,12,46,26.00
2018,07,16,12,47,25.90
2018,07,16,12,48,25.90
2018,07,16,12,49,25.90
2018,07,16,12,50,25.90
2018,07,16,12,51,26.00
2018,07,16,12,52,26.00
2018,07,16,12,53,25.90
2018,07,16,12,54,25.90
2018,07,16,12,55,25.90
2018,07,16,12,56,25.80
2018,07,16,12,57,25.80
2018,07,16,12,58,25.80
2018,07,16,12,59,25.90
2018,07,16,13,00,25.90
2018,07,16,13,01,26.00
2018,07,16,13,02,26.00
2018,07,16,13,03,26.10
2018,07,16,13,04,26.00
2018,07,16,13,05,26.00
2018,07,16,13,06,25.90
2018,07,16,13,07,25.80
2018,07,16,13,08,25.80
2018,07,16,13,09,25.80
2018,07,16,13,10,25.70
2018,07,16,13,11,25.70
2018,07,16,13,12,25.70
2018,07,16,13,13,25.70
2018,07,16,13,14,25.70
2018,07,16,13,15,25.80
2018,07,16,13,16,25.80
2018,07,16,13,17,25.80
2018,07,16,13,18,25.80
2018,07,16,13,19,25.80
2018,07,16,13,20,25.90
2018,07,16,13,21,25.90
2018,07,16,13,22,25.90
2018,07,16,13,23,25.90
2018,07,16,13,24,25.90
2018,07,16,13,25,25.90
2018,07,16,13,26,25.90
2018,07,16,13,27,25.90
2018,07,16,13,28,26.00
2018,07,16,13,29,26.10
2018,07,16,13,30,26.10
2018,07,16,13,31,26.20
2018,07,16,13,32,26.20
2018,07,16,13,33,26.30
2018,07,16,13,34,26.30
2018,07,16,13,35,26.40
2018,07,16,13,36,26.50
2018,07,16,13,37,26.50
2018,07,16,13,38,26.50
2018,07,16,13,39,26.40
2018,07,16,13,40,26.50
2018,07,16,13,41,26.60
2018,07,16,13,42,26.60
2018,07,16,13,43,26.50
2018,07,16,13,44,26.50
2018,07,16,13,45,26.40
2018,07,16,13,46,26.40
2018,07,16,13,47,26.50
2018,07,16,13,48,26.50
2018,07,16,13,49,26.50
2018,07,16,13,50,26.40
2018,07,16,13,51,26.40
2018,07,16,13,52,26.50
2018,07,16,13,53,26.60
2018,07,16,13,54,26.60
2018,07,16,13,55,26.60
2018,07,16,13,56,26.60
2018,07,16,13,57,26.50
2018,07,16,13,58,26.40
2018,07,16,13,59,26.40
2018,07,16,14,00,26.40
2018,07,16,14,01,26.30
2018,07,16,14,02,26.30
2018,07,16,14,03,26.30
2018,07,16,14,04,26.30
2018,07,16,14,05,26.40
2018,07,16,14,06,26.40
2018,07,16,14,07,26.40
2018,07,16,14,08,26.50
2018,07,16,14,09,26.60
2018,07,16,14,10,26.70
2018,07,16,14,11,26.80
2018,07,16,14,12,26.80
2018,07,16,14,13,26.80
2018,07,16,14,14,26.80
2018,07,16,14,15,26.80
2018,07,16,14,16,26.80
2018,07,16,14,17,26.80
2018,07,16,14,18,26.80
2018,07,16,14,19,26.80
2018,07,16,14,20,26.80
2018,07,16,14,21,26.80
2018,07,16,14,22,26.90
2018,07,16,14,23,26.90
2018,07,16,14,24,26.90
2018,07,16,14,25,27.00
2018,07,16,14,26,27.00
2018,07,16,14,27,27.10
2018,07,16,14,28,27.20
2018,07,16,14,29,27.30
2018,07,16,14,30,27.40
2018,07,16,14,31,27.50
2018,07,16,14,32,27.70
2018,07,16,14,33,27.80
2018,07,16,14,34,27.80
2018,07,16,14,35,27.90
2018,07,16,14,36,27.90
2018,07,16,14,37,28.00
2018,07,16,14,38,28.10
2018,07,16,14,39,28.20
2018,07,16,14,40,28.30
2018,07,16,14,41,28.40
2018,07,16,14,42,28.40
2018,07,16,14,43,28.40
2018,07,16,14,44,28.50
2018,07,16,14,45,28.50
2018,07,16,14,46,28.50
2018,07,16,14,47,28.50
2018,07,16,14,48,28.60
2018,07,16,14,49,28.60
2018,07,16,14,50,28.60
2018,07,16,14,51,28.70
2018,07,16,14,52,28.70
2018,07,16,14,53,28.70
2018,07,16,14,54,28.70
2018,07,16,14,55,28.70
2018,07,16,14,56,28.80
2018,07,16,14,57,28.90
2018,07,16,14,58,29.00
2018,07,16,14,59,29.10
2018,07,16,15,00,29.20
2018,07,16,15,01,29.20
2018,07,16,15,02,29.20
2018,07,16,15,03,29.20
2018,07,16,15,04,29.20
2018,07,16,15,05,29.30
2018,07,16,15,06,29.30
2018,07,16,15,07,29.20
2018,07,16,15,08,29.20
2018,07,16,15,09,29.20
2018,07,16,15,10,29.30
2018,07,16,15,11,29.30
2018,07,16,15,12,29.30
2018,07,16,15,13,29.30
2018,07,16,15,14,29.40
2018,07,16,15,15,29.40
2018,07,16,15,16,29.40
2018,07,16,15,17,29.30
2018,07,16,15,18,29.20
2018,07,16,15,19,29.10
2018,07,16,15,20,29.00
2018,07,16,15,21,28.90
2018,07,16,15,22,28.90
2018,07,16,15,23,28.80
2018,07,16,15,24,28.70
2018,07,16,15,25,28.50
2018,07,16,15,26,28.40
2018,07,16,15,27,28.30
2018,07,16,15,28,28.30
2018,07,16,15,29,28.20
2018,07,16,15,30,28.20
2018,07,16,15,31,28.20
2018,07,16,15,32,28.20
2018,07,16,15,33,28.30
2018,07,16,15,34,28.30
2018,07,16,15,35,28.30
2018,07,16,15,36,28.30
2018,07,16,15,37,28.30
2018,07,16,15,38,28.30
2018,07,16,15,39,28.40
2018,07,16,15,40,28.40
2018,07,16,15,41,28.40
2018,07,16,15,42,28.50
2018,07,16,15,43,28.50
2018,07,16,15,44,28.60
2018,07,16,15,45,28.70
2018,07,16,15,46,28.70
2018,07,16,15,47,28.80
2018,07,16,15,48,28.90
2018,07,16,15,49,28.90
2018,07,16,15,50,28.90
2018,07,16,15,51,28.90
2018,07,16,15,52,28.90
2018,07,16,15,53,28.90
2018,07,16,15,54,28.90
2018,07,16,15,55,28.90
2018,07,16,15,56,28.90
2018,07,16,15,57,28.90
2018,07,16,15,58,28.90
2018,07,16,15,59,28.90
2018,07,16,16,00,28.90
2018,07,16,16,01,28.90
2018,07,16,16,02,28.90
2018,07,16,16,03,28.90
2018,07,16,16,04,28.90
2018,07,16,16,05,28.90
2018,07,16,16,06,29.00
2018,07,16,16,07,29.00
2018,07,16,16,08,29.10
2018,07,16,16,09,29.10
2018,07,16,16,10,29.20
2018,07,16,16,11,29.20
2018,07,16,16,12,29.20
2018,07,16,16,13,29.20
2018,07,16,16,14,29.30
2018,07,16,16,15,29.30
2018,07,16,16,16,29.20
2018,07,16,16,17,29.20
2018,07,16,16,18,29.20
2018,07,16,16,19,29.20
2018,07,16,16,20,29.30
2018,07,16,16,21,29.40
2018,07,16,16,22,29.40
2018,07,16,16,23,29.50
2018,07,16,16,24,29.60
2018,07,16,16,25,29.70
2018,07,16,16,26,29.70
2018,07,16,16,27,29.80
2018,07,16,16,28,29.90
2018,07,16,16,29,29.90
2018,07,16,16,30,29.90
2018,07,16,16,31,29.80
2018,07,16,16,32,29.80
2018,07,16,16,33,29.80
2018,07,16,16,34,29.70
2018,07,16,16,35,29.70
2018,07,16,16,36,29.70
2018,07,16,16,37,29.70
2018,07,16,16,38,29.70
2018,07,16,16,39,29.70
2018,07,16,16,40,29.60
2018,07,16,16,41,29.70
2018,07,16,16,42,29.70
2018,07,16,16,43,29.70
2018,07,16,16,44,29.70
2018,07,16,16,45,29.60
2018,07,16,16,46,29.60
2018,07,16,16,47,29.60
2018,07,16,16,48,29.60
2018,07,16,16,49,29.60
2018,07,16,16,50,29.60
2018,07,16,16,51,29.60
2018,07,16,16,52,29.60
2018,07,16,16,53,29.60
2018,07,16,16,54,29.50
2018,07,16,16,55,29.50
2018,07,16,16,56,29.40
2018,07,16,16,57,29.40
2018,07,16,16,58,29.40
2018,07,16,16,59,29.40
2018,07,16,17,00,29.50
2018,07,16,17,01,29.50
2018,07,16,17,02,29.60
2018,07,16,17,03,29.60
2018,07,16,17,04,29.70
2018,07,16,17,05,29.80
2018,07,16,17,06,29.80
2018,07,16,17,07,29.80
2018,07,16,17,08,29.80
2018,07,16,17,09,29.80
2018,07,16,17,10,29.90
2018,07,16,17,11,29.90
2018,07,16,17,12,29.90
2018,07,16,17,13,29.90
2018,07,16,17,14,29.80
2018,07,16,17,15,29.80
2018,07,16,17,16,29.90
2018,07,16,17,17,29.90
2018,07,16,17,18,29.90
2018,07,16,17,19,30.00